VOYAGER:1:PRINTED,ON:,1-OCT-01:10:51:56:V179053S29
START_TIME,STOP_TIME,SECTOR,SCAN_DIR,P1FLUX,P1UNC,P10FLUX,P10UNC,P11FLUX,P11UNC,M6FLUX,M6UNC,M7FLUX,M7UNC
1979-02-22 00:00:11.770 ,1979-02-22 00:00:17.710 ,3,1,7.71,3.86,0.000E+00,0.000E+00,2.343E-02,2.343E-02,0.000E+00,0.000E+00,0.000E+00,0.000E+00
1979-02-22 00:00:18.140 ,1979-02-22 00:00:41.710 ,4,1,3.03,1.14,3.792E-02,2.681E-02,2.655E-02,1.533E-02,0.000E+00,0.000E+00,0.000E+00,0.000E+00
1979-02-22 00:00:42.140 ,1979-02-22 00:01:05.710 ,5,1,2.54,1.13,0.000E+00,0.000E+00,3.514E-02,2.029E-02,0.000E+00,0.000E+00,0.000E+00,0.000E+00
1979-02-22 00:01:06.140 ,1979-02-22 00:01:29.710 ,6,1,3.55,1.34,0.000E+00,0.000E+00,0.000E+00,0.000E+00,0.000E+00,0.000E+00,0.000E+00,0.000E+00
1979-02-22 00:01:30.140 ,1979-02-22 00:01:53.710 ,7,1,8.12,2.03,0.000E+00,0.000E+00,3.514E-02,2.029E-02,0.000E+00,0.000E+00,0.000E+00,0.000E+00
1979-02-22 00:01:54.140 ,1979-02-22 00:02:35.710 ,8,1,0.000E+00,0.000E+00,0.000E+00,0.000E+00,7.810E-03,7.810E-03,0.000E+00,0.000E+00,0.000E+00,0.000E+00
1979-02-22 00:02:35.770 ,1979-02-22 00:02:41.710 ,8,-1,0.000E+00,0.000E+00,0.000E+00,0.000E+00,0.000E+00,0.000E+00,0.000E+00,0.000E+00,0.000E+00,0.000E+00
1979-02-22 00:02:42.140 ,1979-02-22 00:03:05.710 ,7,-1,6.53,1.81,3.268E-02,3.268E-02,0.000E+00,0.000E+00,0.000E+00,0.000E+00,0.000E+00,0.000E+00
1979-02-22 00:03:06.140 ,1979-02-22 00:03:29.710 ,6,-1,6.09,1.76,0.000E+00,0.000E+00,1.171E-02,1.171E-02,0.000E+00,0.000E+00,0.000E+00,0.000E+00
1979-02-22 00:03:30.140 ,1979-02-22 00:03:53.710 ,5,-1,4.66,1.47,2.169E-02,2.169E-02,9.656E-03,9.656E-03,0.000E+00,0.000E+00,0.000E+00,0.000E+00
1979-02-22 00:03:54.140 ,1979-02-22 00:04:17.710 ,4,-1,6.09,1.76,0.000E+00,0.000E+00,2.343E-02,1.656E-02,0.000E+00,0.000E+00,0.000E+00,0.000E+00
1979-02-22 00:04:18.140 ,1979-02-22 00:04:41.710 ,3,-1,6.16,1.71,1.092E-02,1.092E-02,3.517E-02,1.435E-02,0.000E+00,0.000E+00,0.000E+00,0.000E+00
1979-02-22 00:04:42.140 ,1979-02-22 00:05:05.710 ,2,-1,5.16,1.55,3.268E-02,3.268E-02,0.000E+00,0.000E+00,0.000E+00,0.000E+00,0.000E+00,0.000E+00
1979-02-22 00:05:05.770 ,1979-02-22 00:05:30.140 ,1,-1,5.51,2.75,0.000E+00,0.000E+00,0.000E+00,0.000E+00,0.000E+00,0.000E+00,0.000E+00,0.000E+00
1979-02-22 00:05:30.140 ,1979-02-22 00:05:53.710 ,1,1,7.18,1.85,2.169E-02,2.169E-02,9.656E-03,9.656E-03,0.000E+00,0.000E+00,0.000E+00,0.000E+00
1979-02-22 00:05:54.140 ,1979-02-22 00:06:17.710 ,2,1,6.09,1.76,0.000E+00,0.000E+00,0.000E+00,0.000E+00,0.000E+00,0.000E+00,0.000E+00,0.000E+00
1979-02-22 00:06:18.140 ,1979-02-22 00:06:41.710 ,3,1,7.34,1.83,5.306E-02,3.752E-02,1.081E-02,1.081E-02,0.000E+00,0.000E+00,0.000E+00,0.000E+00
1979-02-22 00:06:42.140 ,1979-02-22 00:07:05.710 ,4,1,2.03,1.01,0.000E+00,0.000E+00,0.000E+00,0.000E+00,0.000E+00,0.000E+00,0.000E+00,0.000E+00
1979-02-22 00:07:06.140 ,1979-02-22 00:07:29.710 ,5,1,6.09,1.76,0.000E+00,0.000E+00,1.171E-02,1.171E-02,0.000E+00,0.000E+00,0.000E+00,0.000E+00
1979-02-22 00:07:30.140 ,1979-02-22 00:07:53.710 ,6,1,6.43,1.85,0.000E+00,0.000E+00,2.343E-02,1.656E-02,0.000E+00,0.000E+00,0.000E+00,0.000E+00
1979-02-22 00:07:54.140 ,1979-02-22 00:08:17.710 ,7,1,5.58,1.68,0.000E+00,0.000E+00,1.171E-02,1.171E-02,0.000E+00,0.000E+00,0.000E+00,0.000E+00
1979-02-22 00:08:18.140 ,1979-02-22 00:08:59.710 ,8,1,0.000E+00,0.000E+00,0.000E+00,0.000E+00,0.000E+00,0.000E+00,0.000E+00,0.000E+00,0.000E+00,0.000E+00
1979-02-22 00:08:59.770 ,1979-02-22 00:09:05.710 ,8,-1,0.000E+00,0.000E+00,0.000E+00,0.000E+00,0.000E+00,0.000E+00,0.000E+00,0.000E+00,0.000E+00,0.000E+00
1979-02-22 00:09:06.140 ,1979-02-22 00:09:29.710 ,7,-1,5.66,1.63,2.169E-02,2.169E-02,9.656E-03,9.656E-03,0.000E+00,0.000E+00,0.000E+00,0.000E+00
1979-02-22 00:09:30.140 ,1979-02-22 00:09:53.710 ,6,-1,4.57,1.52,0.000E+00,0.000E+00,1.171E-02,1.171E-02,0.000E+00,0.000E+00,0.000E+00,0.000E+00
1979-02-22 00:09:54.140 ,1979-02-22 00:10:17.710 ,5,-1,4.57,1.52,0.000E+00,0.000E+00,1.171E-02,1.171E-02,0.000E+00,0.000E+00,0.000E+00,0.000E+00
1979-02-22 00:10:18.140 ,1979-02-22 00:10:41.710 ,4,-1,6.09,1.76,0.000E+00,0.000E+00,1.171E-02,1.171E-02,0.000E+00,0.000E+00,0.000E+00,0.000E+00
1979-02-22 00:10:42.140 ,1979-02-22 00:11:05.710 ,3,-1,5.16,1.55,3.268E-02,3.268E-02,0.000E+00,0.000E+00,0.000E+00,0.000E+00,0.000E+00,0.000E+00
1979-02-22 00:11:06.140 ,1979-02-22 00:11:29.710 ,2,-1,5.58,1.68,0.000E+00,0.000E+00,1.171E-02,1.171E-02,0.000E+00,0.000E+00,0.000E+00,0.000E+00
1979-02-22 00:11:29.770 ,1979-02-22 00:11:54.140 ,1,-1,6.88,3.08,0.000E+00,0.000E+00,1.171E-02,1.171E-02,0.000E+00,0.000E+00,0.000E+00,0.000E+00
1979-02-22 00:11:54.140 ,1979-02-22 00:12:17.710 ,1,1,7.34,1.83,5.306E-02,3.752E-02,1.081E-02,1.081E-02,0.000E+00,0.000E+00,0.000E+00,0.000E+00
1979-02-22 00:12:18.140 ,1979-02-22 00:12:41.710 ,2,1,4.06,1.43,0.000E+00,0.000E+00,1.171E-02,1.171E-02,0.000E+00,0.000E+00,0.000E+00,0.000E+00
1979-02-22 00:12:42.140 ,1979-02-22 00:13:05.710 ,3,1,9.64,2.21,0.000E+00,0.000E+00,2.343E-02,1.656E-02,0.000E+00,0.000E+00,0.000E+00,0.000E+00
1979-02-22 00:13:06.140 ,1979-02-22 00:13:29.710 ,4,1,6.09,1.76,0.000E+00,0.000E+00,2.343E-02,1.656E-02,0.000E+00,0.000E+00,0.000E+00,0.000E+00
1979-02-22 00:13:30.140 ,1979-02-22 00:13:53.710 ,5,1,6.09,1.76,0.000E+00,0.000E+00,1.171E-02,1.171E-02,0.000E+00,0.000E+00,0.000E+00,0.000E+00
1979-02-22 00:13:54.140 ,1979-02-22 00:14:17.710 ,6,1,4.16,1.39,2.169E-02,2.169E-02,9.656E-03,9.656E-03,0.000E+00,0.000E+00,0.000E+00,0.000E+00
1979-02-22 00:14:18.140 ,1979-02-22 00:14:41.710 ,7,1,4.57,1.52,0.000E+00,0.000E+00,0.000E+00,0.000E+00,0.000E+00,0.000E+00,0.000E+00,0.000E+00
1979-02-22 00:14:42.140 ,1979-02-22 00:15:23.710 ,8,1,0.000E+00,0.000E+00,0.000E+00,0.000E+00,7.810E-03,7.810E-03,0.000E+00,0.000E+00,0.000E+00,0.000E+00
1979-02-22 00:15:23.770 ,1979-02-22 00:15:29.710 ,8,-1,0.000E+00,0.000E+00,0.000E+00,0.000E+00,2.343E-02,2.343E-02,0.000E+00,0.000E+00,0.000E+00,0.000E+00
1979-02-22 00:15:30.140 ,1979-02-22 00:15:53.710 ,7,-1,7.18,1.85,3.268E-02,3.268E-02,0.000E+00,0.000E+00,0.000E+00,0.000E+00,0.000E+00,0.000E+00
1979-02-22 00:15:54.140 ,1979-02-22 00:16:17.710 ,6,-1,5.07,1.60,0.000E+00,0.000E+00,1.171E-02,1.171E-02,0.000E+00,0.000E+00,0.000E+00,0.000E+00
1979-02-22 00:16:18.140 ,1979-02-22 00:16:41.710 ,5,-1,6.67,1.78,1.464E-02,1.464E-02,2.207E-02,1.274E-02,0.000E+00,0.000E+00,0.000E+00,0.000E+00
1979-02-22 00:16:42.140 ,1979-02-22 00:17:05.710 ,4,-1,7.69,1.92,3.268E-02,3.268E-02,0.000E+00,0.000E+00,0.000E+00,0.000E+00,0.000E+00,0.000E+00
1979-02-22 00:17:06.140 ,1979-02-22 00:17:29.710 ,3,-1,6.67,1.78,3.268E-02,3.268E-02,0.000E+00,0.000E+00,0.000E+00,0.000E+00,0.000E+00,0.000E+00
1979-02-22 00:17:30.140 ,1979-02-22 00:17:53.710 ,2,-1,6.09,1.76,0.000E+00,0.000E+00,0.000E+00,0.000E+00,0.000E+00,0.000E+00,0.000E+00,0.000E+00
1979-02-22 00:17:53.770 ,1979-02-22 00:18:18.140 ,1,-1,11.0,3.89,0.000E+00,0.000E+00,1.171E-02,1.171E-02,2.594E-02,2.594E-02,0.000E+00,0.000E+00
1979-02-22 00:18:18.140 ,1979-02-22 00:18:41.710 ,1,1,7.18,1.85,3.268E-02,3.268E-02,0.000E+00,0.000E+00,0.000E+00,0.000E+00,0.000E+00,0.000E+00
1979-02-22 00:18:42.140 ,1979-02-22 00:19:05.710 ,2,1,5.16,1.55,1.464E-02,1.464E-02,2.207E-02,1.274E-02,0.000E+00,0.000E+00,0.000E+00,0.000E+00
1979-02-22 00:19:06.140 ,1979-02-22 00:19:29.710 ,3,1,10.3,2.24,2.169E-02,2.169E-02,9.656E-03,9.656E-03,0.000E+00,0.000E+00,0.000E+00,0.000E+00
1979-02-22 00:19:30.140 ,1979-02-22 00:19:53.710 ,4,1,4.57,1.52,0.000E+00,0.000E+00,2.343E-02,1.656E-02,0.000E+00,0.000E+00,0.000E+00,0.000E+00
1979-02-22 00:19:54.140 ,1979-02-22 00:20:17.710 ,5,1,4.06,1.43,0.000E+00,0.000E+00,2.343E-02,1.656E-02,0.000E+00,0.000E+00,0.000E+00,0.000E+00
1979-02-22 00:20:18.140 ,1979-02-22 00:20:41.710 ,6,1,3.03,1.14,6.536E-02,4.621E-02,0.000E+00,0.000E+00,0.000E+00,0.000E+00,0.000E+00,0.000E+00
1979-02-22 00:20:42.140 ,1979-02-22 00:21:05.710 ,7,1,8.62,2.09,0.000E+00,0.000E+00,1.171E-02,1.171E-02,0.000E+00,0.000E+00,0.000E+00,0.000E+00
1979-02-22 00:21:06.140 ,1979-02-22 00:21:47.710 ,8,1,0.000E+00,0.000E+00,0.000E+00,0.000E+00,0.000E+00,0.000E+00,0.000E+00,0.000E+00,0.000E+00,0.000E+00
1979-02-22 00:21:47.770 ,1979-02-22 00:21:53.710 ,8,-1,0.000E+00,0.000E+00,0.000E+00,0.000E+00,2.343E-02,2.343E-02,0.000E+00,0.000E+00,0.000E+00,0.000E+00
1979-02-22 00:21:54.140 ,1979-02-22 00:22:17.710 ,7,-1,8.21,1.99,2.169E-02,2.169E-02,9.656E-03,9.656E-03,0.000E+00,0.000E+00,0.000E+00,0.000E+00
1979-02-22 00:22:18.140 ,1979-02-22 00:22:41.710 ,6,-1,4.82,1.61,0.000E+00,0.000E+00,0.000E+00,0.000E+00,0.000E+00,0.000E+00,0.000E+00,0.000E+00
1979-02-22 00:22:42.140 ,1979-02-22 00:23:05.710 ,5,-1,5.16,1.55,2.169E-02,2.169E-02,9.656E-03,9.656E-03,0.000E+00,0.000E+00,0.000E+00,0.000E+00
1979-02-22 00:23:06.140 ,1979-02-22 00:23:29.710 ,4,-1,2.94,1.11,8.806E-02,5.084E-02,1.131E-02,1.131E-02,0.000E+00,0.000E+00,0.000E+00,0.000E+00
1979-02-22 00:23:30.140 ,1979-02-22 00:23:53.710 ,3,-1,7.10,1.90,0.000E+00,0.000E+00,2.343E-02,1.656E-02,0.000E+00,0.000E+00,0.000E+00,0.000E+00
1979-02-22 00:23:54.140 ,1979-02-22 00:24:17.710 ,2,-1,7.69,1.92,1.710E-02,1.710E-02,1.648E-02,1.165E-02,0.000E+00,0.000E+00,0.000E+00,0.000E+00
1979-02-22 00:24:17.770 ,1979-02-22 00:24:42.140 ,1,-1,8.63,3.26,5.702E-02,5.702E-02,2.839E-02,1.639E-02,0.000E+00,0.000E+00,0.000E+00,0.000E+00
1979-02-22 00:24:42.140 ,1979-02-22 00:25:05.710 ,1,1,8.72,2.06,3.268E-02,3.268E-02,0.000E+00,0.000E+00,0.000E+00,0.000E+00,0.000E+00,0.000E+00
1979-02-22 00:25:06.140 ,1979-02-22 00:25:29.710 ,2,1,4.66,1.47,2.169E-02,2.169E-02,9.656E-03,9.656E-03,0.000E+00,0.000E+00,0.000E+00,0.000E+00
1979-02-22 00:25:30.140 ,1979-02-22 00:25:53.710 ,3,1,5.07,1.60,0.000E+00,0.000E+00,3.514E-02,2.029E-02,0.000E+00,0.000E+00,0.000E+00,0.000E+00
1979-02-22 00:25:54.140 ,1979-02-22 00:26:17.710 ,4,1,6.09,1.76,0.000E+00,0.000E+00,1.171E-02,1.171E-02,0.000E+00,0.000E+00,0.000E+00,0.000E+00
1979-02-22 00:26:18.140 ,1979-02-22 00:26:41.710 ,5,1,5.16,1.55,2.169E-02,2.169E-02,9.656E-03,9.656E-03,0.000E+00,0.000E+00,0.000E+00,0.000E+00
1979-02-22 00:26:42.140 ,1979-02-22 00:27:05.710 ,6,1,4.57,1.52,0.000E+00,0.000E+00,0.000E+00,0.000E+00,0.000E+00,0.000E+00,0.000E+00,0.000E+00
1979-02-22 00:27:06.140 ,1979-02-22 00:27:29.710 ,7,1,5.07,1.60,0.000E+00,0.000E+00,0.000E+00,0.000E+00,0.000E+00,0.000E+00,0.000E+00,0.000E+00
1979-02-22 00:27:30.140 ,1979-02-22 00:28:11.710 ,8,1,0.000E+00,0.000E+00,0.000E+00,0.000E+00,0.000E+00,0.000E+00,0.000E+00,0.000E+00,0.000E+00,0.000E+00
1979-02-22 00:28:11.770 ,1979-02-22 00:28:17.710 ,8,-1,0.000E+00,0.000E+00,0.000E+00,0.000E+00,0.000E+00,0.000E+00,0.000E+00,0.000E+00,0.000E+00,0.000E+00
1979-02-22 00:28:18.140 ,1979-02-22 00:28:41.710 ,7,-1,11.2,2.38,0.000E+00,0.000E+00,2.343E-02,1.656E-02,0.000E+00,0.000E+00,0.000E+00,0.000E+00
1979-02-22 00:28:42.140 ,1979-02-22 00:29:05.710 ,6,-1,6.59,1.83,0.000E+00,0.000E+00,1.171E-02,1.171E-02,0.000E+00,0.000E+00,0.000E+00,0.000E+00
1979-02-22 00:29:06.140 ,1979-02-22 00:29:29.710 ,5,-1,8.72,2.06,1.710E-02,1.710E-02,1.648E-02,1.165E-02,0.000E+00,0.000E+00,0.000E+00,0.000E+00
1979-02-22 00:29:30.140 ,1979-02-22 00:29:53.710 ,4,-1,5.58,1.68,0.000E+00,0.000E+00,2.343E-02,1.656E-02,0.000E+00,0.000E+00,0.000E+00,0.000E+00
1979-02-22 00:29:54.140 ,1979-02-22 00:30:17.710 ,3,-1,3.04,1.24,0.000E+00,0.000E+00,2.343E-02,1.656E-02,0.000E+00,0.000E+00,0.000E+00,0.000E+00
1979-02-22 00:30:18.140 ,1979-02-22 00:30:41.710 ,2,-1,8.12,2.03,0.000E+00,0.000E+00,3.514E-02,2.029E-02,0.000E+00,0.000E+00,0.000E+00,0.000E+00
1979-02-22 00:30:41.770 ,1979-02-22 00:31:06.140 ,1,-1,8.26,3.37,0.000E+00,0.000E+00,3.514E-02,2.029E-02,0.000E+00,0.000E+00,0.000E+00,0.000E+00
1979-02-22 00:31:06.140 ,1979-02-22 00:31:29.710 ,1,1,10.1,2.27,0.000E+00,0.000E+00,4.686E-02,2.343E-02,0.000E+00,0.000E+00,0.000E+00,0.000E+00
1979-02-22 00:31:30.140 ,1979-02-22 00:31:53.710 ,2,1,4.06,1.43,0.000E+00,0.000E+00,0.000E+00,0.000E+00,0.000E+00,0.000E+00,0.000E+00,0.000E+00
1979-02-22 00:31:54.140 ,1979-02-22 00:32:17.710 ,3,1,4.16,1.39,1.710E-02,1.710E-02,1.648E-02,1.165E-02,0.000E+00,0.000E+00,0.000E+00,0.000E+00
1979-02-22 00:32:18.140 ,1979-02-22 00:32:41.710 ,4,1,5.16,1.55,1.464E-02,1.464E-02,2.207E-02,1.274E-02,0.000E+00,0.000E+00,0.000E+00,0.000E+00
1979-02-22 00:32:42.140 ,1979-02-22 00:33:05.710 ,5,1,4.06,1.43,0.000E+00,0.000E+00,4.686E-02,2.343E-02,0.000E+00,0.000E+00,0.000E+00,0.000E+00
1979-02-22 00:33:06.140 ,1979-02-22 00:33:29.710 ,6,1,4.57,1.52,0.000E+00,0.000E+00,0.000E+00,0.000E+00,0.000E+00,0.000E+00,0.000E+00,0.000E+00
1979-02-22 00:33:30.140 ,1979-02-22 00:33:53.710 ,7,1,8.12,2.03,0.000E+00,0.000E+00,1.171E-02,1.171E-02,0.000E+00,0.000E+00,0.000E+00,0.000E+00
1979-02-22 00:33:54.140 ,1979-02-22 00:34:35.710 ,8,1,0.000E+00,0.000E+00,0.000E+00,0.000E+00,0.000E+00,0.000E+00,0.000E+00,0.000E+00,0.000E+00,0.000E+00
1979-02-22 00:34:35.770 ,1979-02-22 00:34:41.710 ,8,-1,0.000E+00,0.000E+00,0.000E+00,0.000E+00,2.343E-02,2.343E-02,0.000E+00,0.000E+00,0.000E+00,0.000E+00
1979-02-22 00:34:42.140 ,1979-02-22 00:35:05.710 ,7,-1,11.2,2.38,0.000E+00,0.000E+00,1.171E-02,1.171E-02,0.000E+00,0.000E+00,0.000E+00,0.000E+00
1979-02-22 00:35:06.140 ,1979-02-22 00:35:29.710 ,6,-1,9.13,2.15,0.000E+00,0.000E+00,1.171E-02,1.171E-02,0.000E+00,0.000E+00,0.000E+00,0.000E+00
1979-02-22 00:35:30.140 ,1979-02-22 00:35:53.710 ,5,-1,6.16,1.71,3.268E-02,3.268E-02,0.000E+00,0.000E+00,0.000E+00,0.000E+00,0.000E+00,0.000E+00
1979-02-22 00:35:54.140 ,1979-02-22 00:36:17.710 ,4,-1,4.16,1.39,1.464E-02,1.464E-02,2.207E-02,1.274E-02,0.000E+00,0.000E+00,0.000E+00,0.000E+00
1979-02-22 00:36:18.140 ,1979-02-22 00:36:41.710 ,3,-1,5.16,1.55,1.710E-02,1.710E-02,1.648E-02,1.165E-02,0.000E+00,0.000E+00,0.000E+00,0.000E+00
1979-02-22 00:36:42.140 ,1979-02-22 00:37:05.710 ,2,-1,4.66,1.47,3.268E-02,3.268E-02,0.000E+00,0.000E+00,0.000E+00,0.000E+00,0.000E+00,0.000E+00
1979-02-22 00:37:05.770 ,1979-02-22 00:37:30.140 ,1,-1,12.4,4.13,0.000E+00,0.000E+00,1.171E-02,1.171E-02,2.594E-02,2.594E-02,0.000E+00,0.000E+00
1979-02-22 00:37:30.140 ,1979-02-22 00:37:53.710 ,1,1,9.24,2.12,2.169E-02,2.169E-02,9.656E-03,9.656E-03,0.000E+00,0.000E+00,0.000E+00,0.000E+00
1979-02-22 00:37:54.140 ,1979-02-22 00:38:17.710 ,2,1,5.16,1.55,2.169E-02,2.169E-02,9.656E-03,9.656E-03,0.000E+00,0.000E+00,0.000E+00,0.000E+00
1979-02-22 00:38:18.140 ,1979-02-22 00:38:41.710 ,3,1,5.87,1.63,5.306E-02,3.752E-02,1.081E-02,1.081E-02,0.000E+00,0.000E+00,0.000E+00,0.000E+00
1979-02-22 00:38:42.140 ,1979-02-22 00:39:05.710 ,4,1,7.10,1.90,0.000E+00,0.000E+00,2.343E-02,1.656E-02,0.000E+00,0.000E+00,0.000E+00,0.000E+00
1979-02-22 00:39:06.140 ,1979-02-22 00:39:29.710 ,5,1,6.16,1.71,1.710E-02,1.710E-02,1.648E-02,1.165E-02,0.000E+00,0.000E+00,0.000E+00,0.000E+00
1979-02-22 00:39:30.140 ,1979-02-22 00:39:53.710 ,6,1,4.57,1.52,0.000E+00,0.000E+00,1.171E-02,1.171E-02,0.000E+00,0.000E+00,0.000E+00,0.000E+00
1979-02-22 00:39:54.140 ,1979-02-22 00:40:17.710 ,7,1,9.64,2.21,0.000E+00,0.000E+00,3.514E-02,2.029E-02,0.000E+00,0.000E+00,0.000E+00,0.000E+00
1979-02-22 00:40:18.140 ,1979-02-22 00:40:59.710 ,8,1,0.000E+00,0.000E+00,1.191E-02,1.191E-02,6.248E-03,6.248E-03,0.000E+00,0.000E+00,0.000E+00,0.000E+00
1979-02-22 00:40:59.770 ,1979-02-22 00:41:05.710 ,8,-1,0.000E+00,0.000E+00,0.000E+00,0.000E+00,0.000E+00,0.000E+00,0.000E+00,0.000E+00,0.000E+00,0.000E+00
1979-02-22 00:41:06.140 ,1979-02-22 00:41:29.710 ,7,-1,4.57,1.52,0.000E+00,0.000E+00,2.343E-02,1.656E-02,0.000E+00,0.000E+00,0.000E+00,0.000E+00
1979-02-22 00:41:30.140 ,1979-02-22 00:41:53.710 ,6,-1,3.55,1.34,0.000E+00,0.000E+00,2.343E-02,1.656E-02,0.000E+00,0.000E+00,0.000E+00,0.000E+00
1979-02-22 00:41:54.140 ,1979-02-22 00:42:17.710 ,5,-1,8.21,1.99,2.169E-02,2.169E-02,9.656E-03,9.656E-03,0.000E+00,0.000E+00,0.000E+00,0.000E+00
1979-02-22 00:42:18.140 ,1979-02-22 00:42:41.710 ,4,-1,4.57,1.52,0.000E+00,0.000E+00,3.514E-02,2.029E-02,0.000E+00,0.000E+00,0.000E+00,0.000E+00
1979-02-22 00:42:42.140 ,1979-02-22 00:43:05.710 ,3,-1,3.55,1.34,0.000E+00,0.000E+00,1.171E-02,1.171E-02,0.000E+00,0.000E+00,0.000E+00,0.000E+00
1979-02-22 00:43:06.140 ,1979-02-22 00:43:29.710 ,2,-1,5.66,1.63,1.710E-02,1.710E-02,1.648E-02,1.165E-02,0.000E+00,0.000E+00,0.000E+00,0.000E+00
1979-02-22 00:43:29.770 ,1979-02-22 00:43:54.140 ,1,-1,6.02,2.69,8.871E-02,8.871E-02,0.000E+00,0.000E+00,0.000E+00,0.000E+00,0.000E+00,0.000E+00
1979-02-22 00:43:54.140 ,1979-02-22 00:44:17.710 ,1,1,6.67,1.78,2.169E-02,2.169E-02,9.656E-03,9.656E-03,0.000E+00,0.000E+00,0.000E+00,0.000E+00
1979-02-22 00:44:18.140 ,1979-02-22 00:44:41.710 ,2,1,4.16,1.39,3.268E-02,3.268E-02,0.000E+00,0.000E+00,0.000E+00,0.000E+00,0.000E+00,0.000E+00
1979-02-22 00:44:42.140 ,1979-02-22 00:45:05.710 ,3,1,7.61,1.96,0.000E+00,0.000E+00,0.000E+00,0.000E+00,0.000E+00,0.000E+00,0.000E+00,0.000E+00
1979-02-22 00:45:06.140 ,1979-02-22 00:45:29.710 ,4,1,6.16,1.71,1.710E-02,1.710E-02,1.648E-02,1.165E-02,7.783E-02,7.783E-02,0.000E+00,0.000E+00
1979-02-22 00:45:30.140 ,1979-02-22 00:45:53.710 ,5,1,6.85,1.77,3.792E-02,2.681E-02,2.655E-02,1.533E-02,0.000E+00,0.000E+00,0.000E+00,0.000E+00
1979-02-22 00:45:54.140 ,1979-02-22 00:46:17.710 ,6,1,4.66,1.47,1.710E-02,1.710E-02,1.648E-02,1.165E-02,0.000E+00,0.000E+00,0.000E+00,0.000E+00
1979-02-22 00:46:18.140 ,1979-02-22 00:46:41.710 ,7,1,9.64,2.21,0.000E+00,0.000E+00,1.171E-02,1.171E-02,0.000E+00,0.000E+00,0.000E+00,0.000E+00
1979-02-22 00:46:42.140 ,1979-02-22 00:47:23.710 ,8,1,0.000E+00,0.000E+00,0.000E+00,0.000E+00,0.000E+00,0.000E+00,0.000E+00,0.000E+00,0.000E+00,0.000E+00
1979-02-22 00:47:23.770 ,1979-02-22 00:47:29.710 ,8,-1,0.000E+00,0.000E+00,0.000E+00,0.000E+00,2.343E-02,2.343E-02,0.000E+00,0.000E+00,0.000E+00,0.000E+00
1979-02-22 00:47:30.140 ,1979-02-22 00:47:53.710 ,7,-1,7.61,1.96,0.000E+00,0.000E+00,0.000E+00,0.000E+00,0.000E+00,0.000E+00,0.000E+00,0.000E+00
1979-02-22 00:47:54.140 ,1979-02-22 00:48:17.710 ,6,-1,6.09,1.76,0.000E+00,0.000E+00,2.343E-02,1.656E-02,0.000E+00,0.000E+00,0.000E+00,0.000E+00
1979-02-22 00:48:18.140 ,1979-02-22 00:48:41.710 ,5,-1,7.10,1.90,0.000E+00,0.000E+00,1.171E-02,1.171E-02,0.000E+00,0.000E+00,0.000E+00,0.000E+00
1979-02-22 00:48:42.140 ,1979-02-22 00:49:05.710 ,4,-1,6.09,1.76,0.000E+00,0.000E+00,0.000E+00,0.000E+00,0.000E+00,0.000E+00,0.000E+00,0.000E+00
1979-02-22 00:49:06.140 ,1979-02-22 00:49:29.710 ,3,-1,8.12,2.03,0.000E+00,0.000E+00,2.343E-02,1.656E-02,0.000E+00,0.000E+00,0.000E+00,0.000E+00
1979-02-22 00:49:30.140 ,1979-02-22 00:49:47.710 ,2,-1,4.98,1.76,2.000E-02,2.000E-02,2.958E-02,2.091E-02,-1.00,-1.00,-1.00,-1.00
1979-02-22 00:49:47.770 ,1979-02-22 00:50:11.770 ,9,0,6.59,1.83,0.000E+00,0.000E+00,2.811E-02,1.623E-02,0.000E+00,0.000E+00,0.000E+00,0.000E+00
1979-02-22 00:50:11.770 ,1979-02-22 00:50:18.140 ,1,-1,9.64,3.93,0.000E+00,0.000E+00,1.562E-02,1.562E-02,0.000E+00,0.000E+00,0.000E+00,0.000E+00
1979-02-22 00:50:18.140 ,1979-02-22 00:50:41.710 ,1,1,8.62,2.09,0.000E+00,0.000E+00,0.000E+00,0.000E+00,0.000E+00,0.000E+00,0.000E+00,0.000E+00
1979-02-22 00:50:42.140 ,1979-02-22 00:51:05.710 ,2,1,10.1,2.27,0.000E+00,0.000E+00,2.343E-02,1.656E-02,0.000E+00,0.000E+00,0.000E+00,0.000E+00
1979-02-22 00:51:06.140 ,1979-02-22 00:51:29.710 ,3,1,4.57,1.52,0.000E+00,0.000E+00,1.171E-02,1.171E-02,0.000E+00,0.000E+00,0.000E+00,0.000E+00
1979-02-22 00:51:30.140 ,1979-02-22 00:51:53.710 ,4,1,6.59,1.83,0.000E+00,0.000E+00,1.171E-02,1.171E-02,0.000E+00,0.000E+00,0.000E+00,0.000E+00
1979-02-22 00:51:54.140 ,1979-02-22 00:52:17.710 ,5,1,5.58,1.68,0.000E+00,0.000E+00,1.171E-02,1.171E-02,0.000E+00,0.000E+00,0.000E+00,0.000E+00
1979-02-22 00:52:18.140 ,1979-02-22 00:52:41.710 ,6,1,5.66,1.63,3.268E-02,3.268E-02,0.000E+00,0.000E+00,0.000E+00,0.000E+00,0.000E+00,0.000E+00
1979-02-22 00:52:42.140 ,1979-02-22 00:53:05.710 ,7,1,4.57,1.52,0.000E+00,0.000E+00,0.000E+00,0.000E+00,0.000E+00,0.000E+00,0.000E+00,0.000E+00
1979-02-22 00:53:06.140 ,1979-02-22 00:53:47.710 ,8,1,0.000E+00,0.000E+00,0.000E+00,0.000E+00,0.000E+00,0.000E+00,0.000E+00,0.000E+00,0.000E+00,0.000E+00
1979-02-22 00:53:47.770 ,1979-02-22 00:53:53.710 ,8,-1,0.000E+00,0.000E+00,0.000E+00,0.000E+00,2.343E-02,2.343E-02,0.000E+00,0.000E+00,0.000E+00,0.000E+00
1979-02-22 00:53:54.140 ,1979-02-22 00:54:17.710 ,7,-1,7.10,1.90,0.000E+00,0.000E+00,2.343E-02,1.656E-02,0.000E+00,0.000E+00,0.000E+00,0.000E+00
1979-02-22 00:54:18.140 ,1979-02-22 00:54:41.710 ,6,-1,6.09,1.76,0.000E+00,0.000E+00,0.000E+00,0.000E+00,0.000E+00,0.000E+00,0.000E+00,0.000E+00
1979-02-22 00:54:42.140 ,1979-02-22 00:55:05.710 ,5,-1,5.89,1.78,0.000E+00,0.000E+00,1.171E-02,1.171E-02,0.000E+00,0.000E+00,0.000E+00,0.000E+00
1979-02-22 00:55:06.140 ,1979-02-22 00:55:29.710 ,4,-1,6.09,1.76,0.000E+00,0.000E+00,1.171E-02,1.171E-02,0.000E+00,0.000E+00,0.000E+00,0.000E+00
1979-02-22 00:55:30.140 ,1979-02-22 00:55:53.710 ,3,-1,3.18,1.20,1.710E-02,1.710E-02,1.648E-02,1.165E-02,0.000E+00,0.000E+00,0.000E+00,0.000E+00
1979-02-22 00:55:54.140 ,1979-02-22 00:56:17.710 ,2,-1,5.16,1.55,1.710E-02,1.710E-02,1.648E-02,1.165E-02,0.000E+00,0.000E+00,0.000E+00,0.000E+00
1979-02-22 00:56:17.770 ,1979-02-22 00:56:42.140 ,1,-1,9.64,3.64,0.000E+00,0.000E+00,3.514E-02,2.029E-02,0.000E+00,0.000E+00,0.000E+00,0.000E+00
1979-02-22 00:56:42.140 ,1979-02-22 00:57:05.710 ,1,1,7.10,1.90,0.000E+00,0.000E+00,2.343E-02,1.656E-02,0.000E+00,0.000E+00,0.000E+00,0.000E+00
1979-02-22 00:57:06.140 ,1979-02-22 00:57:29.710 ,2,1,5.07,1.60,0.000E+00,0.000E+00,2.343E-02,1.656E-02,0.000E+00,0.000E+00,0.000E+00,0.000E+00
1979-02-22 00:57:30.140 ,1979-02-22 00:57:53.710 ,3,1,7.69,1.92,1.301E-02,1.301E-02,2.691E-02,1.346E-02,0.000E+00,0.000E+00,0.000E+00,0.000E+00
1979-02-22 00:57:54.140 ,1979-02-22 00:58:17.710 ,4,1,6.16,1.71,1.710E-02,1.710E-02,1.648E-02,1.165E-02,0.000E+00,0.000E+00,0.000E+00,0.000E+00
1979-02-22 00:58:18.140 ,1979-02-22 00:58:41.710 ,5,1,4.66,1.47,2.169E-02,2.169E-02,9.656E-03,9.656E-03,0.000E+00,0.000E+00,0.000E+00,0.000E+00
1979-02-22 00:58:42.140 ,1979-02-22 00:59:05.710 ,6,1,4.66,1.47,3.268E-02,3.268E-02,0.000E+00,0.000E+00,0.000E+00,0.000E+00,0.000E+00,0.000E+00
1979-02-22 00:59:06.140 ,1979-02-22 00:59:29.710 ,7,1,7.10,1.90,0.000E+00,0.000E+00,1.171E-02,1.171E-02,0.000E+00,0.000E+00,0.000E+00,0.000E+00
1979-02-22 00:59:30.140 ,1979-02-22 00:00:11.710 ,8,1,0.000E+00,0.000E+00,0.000E+00,0.000E+00,7.810E-03,7.810E-03,0.000E+00,0.000E+00,0.000E+00,0.000E+00
1979-02-22 01:00:11.770 ,1979-02-22 01:00:17.710 ,8,-1,0.000E+00,0.000E+00,0.000E+00,0.000E+00,0.000E+00,0.000E+00,0.000E+00,0.000E+00,0.000E+00,0.000E+00
1979-02-22 01:00:18.140 ,1979-02-22 01:00:41.710 ,7,-1,10.7,2.32,0.000E+00,0.000E+00,2.343E-02,1.656E-02,0.000E+00,0.000E+00,0.000E+00,0.000E+00
1979-02-22 01:00:42.140 ,1979-02-22 01:01:05.710 ,6,-1,4.66,1.47,3.268E-02,3.268E-02,0.000E+00,0.000E+00,0.000E+00,0.000E+00,0.000E+00,0.000E+00
1979-02-22 01:01:06.140 ,1979-02-22 01:01:29.710 ,5,-1,5.58,1.68,0.000E+00,0.000E+00,2.343E-02,1.656E-02,0.000E+00,0.000E+00,0.000E+00,0.000E+00
1979-02-22 01:01:30.140 ,1979-02-22 01:01:53.710 ,4,-1,5.87,1.63,5.306E-02,3.752E-02,1.081E-02,1.081E-02,0.000E+00,0.000E+00,0.000E+00,0.000E+00
1979-02-22 01:01:54.140 ,1979-02-22 01:02:17.710 ,3,-1,8.21,1.99,2.169E-02,2.169E-02,9.656E-03,9.656E-03,0.000E+00,0.000E+00,0.000E+00,0.000E+00
1979-02-22 01:02:18.140 ,1979-02-22 01:02:41.710 ,2,-1,2.54,1.13,0.000E+00,0.000E+00,0.000E+00,0.000E+00,0.000E+00,0.000E+00,0.000E+00,0.000E+00
1979-02-22 01:02:41.770 ,1979-02-22 01:03:06.140 ,1,-1,6.88,3.08,0.000E+00,0.000E+00,1.171E-02,1.171E-02,0.000E+00,0.000E+00,0.000E+00,0.000E+00
1979-02-22 01:03:06.140 ,1979-02-22 01:03:29.710 ,1,1,6.16,1.71,2.169E-02,2.169E-02,9.656E-03,9.656E-03,0.000E+00,0.000E+00,0.000E+00,0.000E+00
1979-02-22 01:03:30.140 ,1979-02-22 01:03:53.710 ,2,1,3.03,1.14,4.339E-02,3.068E-02,1.931E-02,1.365E-02,0.000E+00,0.000E+00,0.000E+00,0.000E+00
1979-02-22 01:03:54.140 ,1979-02-22 01:04:17.710 ,3,1,4.31,1.36,8.806E-02,5.084E-02,1.131E-02,1.131E-02,0.000E+00,0.000E+00,0.000E+00,0.000E+00